Weather History for Falfurrias, TX

Change the Weather History Date:

Friday, July 27, 2012

  Actual Average (KNQI) Record (KNQI)
Temperature  
Mean Temperature 90 °F -  
Max Temperature 99 °F 94 °F 102 °F (2013)
Min Temperature 81 °F 74 °F 72 °F (1996)
Cooling Degree Days 25    
Growing Degree Days 40 (Base 50)    
Moisture  
Dew Point 70 °F    
Average Humidity 59    
Maximum Humidity 80    
Minimum Humidity 29    
Precipitation  
Precipitation 0.00 in - - ()
Sea Level Pressure  
Sea Level Pressure 29.94 in    
Wind  
Wind Speed 10 mph (SE)    
Max Wind Speed 20 mph    
Max Gust Speed 25 mph    
Visibility 7 miles    
Events      
Averages and records for this station are not official NWS values.
T = Trace of Precipitation, MM = Missing Value Source: NWS Daily Summary

Daily Weather History Graph

Daily Weather History Graph

Search for Another Location

Airport:

Trip Planner

Search our weather history database for the weather conditions in past years. The results will help you decide how hot, cold, wet, or windy it might be!

Date:

Astronomy

Jul. 27, 2012 Rise Set
Actual Time 6:54 AM CDT 8:23 PM CDT
Civil Twilight 6:28 AM CDT 8:48 PM CDT
Nautical Twilight 5:58 AM CDT 9:19 PM CDT
Astronomical Twilight 5:26 AM CDT 9:50 PM CDT
Moon 3:20 PM CDT (7/27) 1:26 AM CDT (7/27)
Length of Visible Light 14h 20m
Length of Day
13h 29m
Waxing Gibbous, 65% of the Moon is Illuminated
Jul 27
Waxing Gibbous
Aug 1
Full
Aug 9
Last Quarter
Aug 17
New
Aug 24
First Quarter

Hourly Weather History & Observations

Time (CDT) Temp. Heat Index Dew Point Humidity Pressure Visibility Wind Dir Wind Speed Gust Speed Precip Events Conditions
12:15 AM 84.2 °F 91.6 °F 74.3 °F 72% 29.93 in 10.0 mi SSE 9.2 mph - N/A   Unknown
12:35 AM 83.7 °F 91.0 °F 74.5 °F 74% 29.92 in 7.0 mi SE 8.1 mph 16.1 mph N/A   Unknown
12:55 AM 83.7 °F 91.0 °F 74.7 °F 74% 29.92 in 7.0 mi SE 9.2 mph 17.3 mph N/A   Unknown
1:15 AM 83.5 °F 90.9 °F 74.7 °F 75% 29.92 in 7.0 mi SE 8.1 mph - N/A   Unknown
1:35 AM 83.3 °F 90.5 °F 74.5 °F 75% 29.92 in 7.0 mi SE 9.2 mph - N/A   Unknown
1:55 AM 83.3 °F 90.5 °F 74.7 °F 75% 29.91 in 7.0 mi SE 10.4 mph - N/A   Unknown
2:15 AM 83.3 °F 90.5 °F 74.7 °F 75% 29.92 in 7.0 mi SSE 11.5 mph - N/A   Unknown
2:35 AM 82.9 °F 89.7 °F 74.5 °F 75% 29.91 in 7.0 mi SSE 11.5 mph - N/A   Unknown
2:55 AM 82.9 °F 89.7 °F 74.5 °F 75% 29.90 in 7.0 mi SE 9.2 mph - N/A   Unknown
3:15 AM 82.9 °F 89.7 °F 74.5 °F 75% 29.90 in 7.0 mi SE 10.4 mph - N/A   Unknown
3:35 AM 82.9 °F 89.9 °F 74.7 °F 76% 29.90 in 7.0 mi SE 10.4 mph - N/A   Unknown
3:55 AM 82.6 °F 89.1 °F 74.5 °F 76% 29.89 in 7.0 mi SE 9.2 mph - N/A   Unknown
4:15 AM 82.4 °F 89.0 °F 74.5 °F 77% 29.89 in 7.0 mi SE 8.1 mph - N/A   Unknown
4:35 AM 81.9 °F 88.0 °F 74.5 °F 78% 29.90 in 7.0 mi SSE 8.1 mph - N/A   Unknown
4:55 AM 81.7 °F 87.6 °F 74.3 °F 78% 29.90 in 7.0 mi SSE 5.8 mph - N/A   Unknown
5:15 AM 81.5 °F 87.4 °F 74.5 °F 79% 29.91 in 7.0 mi SSE 8.1 mph - N/A   Unknown
5:35 AM 81.5 °F 87.4 °F 74.5 °F 79% 29.91 in 7.0 mi SSE 6.9 mph - N/A   Unknown
5:55 AM 81.5 °F 87.4 °F 74.5 °F 79% 29.92 in 7.0 mi SE 4.6 mph - N/A   Unknown
6:15 AM 81.5 °F 87.4 °F 74.5 °F 79% 29.92 in 7.0 mi SE 4.6 mph - N/A   Unknown
6:35 AM 81.5 °F 87.4 °F 74.3 °F 79% 29.92 in 7.0 mi SE 5.8 mph - N/A   Unknown
6:55 AM 81.5 °F 87.4 °F 74.3 °F 79% 29.93 in 7.0 mi SE 5.8 mph - N/A   Unknown
7:15 AM 81.5 °F 87.6 °F 74.7 °F 80% 29.94 in 5.0 mi SE 5.8 mph - N/A   Unknown
7:35 AM 81.5 °F 87.6 °F 74.7 °F 80% 29.94 in 5.0 mi ESE 5.8 mph - N/A   Unknown
7:55 AM 81.5 °F 87.4 °F 74.5 °F 79% 29.96 in 5.0 mi ESE 6.9 mph - N/A   Unknown
8:15 AM 81.7 °F 87.8 °F 74.7 °F 79% 29.96 in 5.0 mi ESE 5.8 mph - N/A   Unknown
8:55 AM 82.6 °F 89.4 °F 74.7 °F 77% 29.97 in 5.0 mi SE 10.4 mph - N/A   Unknown
9:15 AM 83.3 °F 90.5 °F 74.7 °F 75% 29.97 in 5.0 mi SSE 10.4 mph 19.6 mph N/A   Unknown
9:35 AM 84.7 °F 91.7 °F 73.8 °F 69% 29.97 in 7.0 mi SE 11.5 mph - N/A   Unknown
9:55 AM 86.9 °F 93.3 °F 72.0 °F 61% 29.97 in 4.0 mi SE 16.1 mph 24.2 mph N/A   Unknown
10:15 AM 89.2 °F 95.9 °F 71.4 °F 56% 29.97 in 5.0 mi SE 16.1 mph 19.6 mph N/A   Unknown
10:55 AM 90.9 °F 96.2 °F 70.0 °F 50% 29.98 in 4.0 mi SE 11.5 mph 19.6 mph N/A   Unknown
11:15 AM 92.1 °F 95.7 °F 67.3 °F 44% 29.98 in 7.0 mi SSE 16.1 mph 21.9 mph N/A   Unknown
11:35 AM 92.8 °F 97.1 °F 68.0 °F 44% 29.99 in 5.0 mi SE 11.5 mph 20.7 mph N/A   Unknown
11:55 AM 94.3 °F 97.2 °F 65.8 °F 39% 29.99 in 7.0 mi South 13.8 mph 23.0 mph N/A   Unknown
12:15 PM 94.3 °F 96.7 °F 65.1 °F 38% 29.98 in 5.0 mi SE 10.4 mph 21.9 mph N/A   Unknown
1:15 PM 97.2 °F 98.6 °F 62.6 °F 32% 29.97 in 7.0 mi ESE 10.4 mph 19.6 mph N/A   Unknown
2:15 PM 99.3 °F 101.2 °F 63.0 °F 30% 29.96 in 4.0 mi SE 15.0 mph 19.6 mph N/A   Unknown
2:35 PM 98.2 °F 101.0 °F 64.6 °F 33% 29.95 in 7.0 mi ESE 13.8 mph 18.4 mph N/A   Unknown
2:55 PM 98.1 °F 101.2 °F 65.7 °F 34% 29.94 in 7.0 mi East 17.3 mph 25.3 mph N/A   Unknown
3:15 PM 98.6 °F 101.6 °F 65.3 °F 33% 29.94 in 10.0 mi ESE 16.1 mph 24.2 mph N/A   Unknown
3:35 PM 97.5 °F 100.8 °F 65.7 °F 35% 29.93 in 7.0 mi SE 15.0 mph 24.2 mph N/A   Unknown
3:55 PM 97.3 °F 100.0 °F 64.4 °F 34% 29.93 in 5.0 mi SE 17.3 mph 24.2 mph N/A   Unknown
4:15 PM 98.4 °F 100.7 °F 63.5 °F 32% 29.92 in 5.0 mi SE 13.8 mph 25.3 mph N/A   Unknown
4:35 PM 98.4 °F 100.2 °F 62.6 °F 31% 29.92 in 7.0 mi East 13.8 mph 20.7 mph N/A   Unknown
4:55 PM 97.7 °F 99.5 °F 63.0 °F 32% 29.92 in 7.0 mi ESE 17.3 mph 25.3 mph N/A   Unknown
5:15 PM 97.9 °F 99.3 °F 62.8 °F 31% 29.92 in 7.0 mi ESE 19.6 mph 25.3 mph N/A   Unknown
5:35 PM 97.0 °F 97.8 °F 61.9 °F 31% 29.92 in 7.0 mi East 16.1 mph 24.2 mph N/A   Unknown
5:55 PM 96.1 °F 96.4 °F 60.8 °F 31% 29.92 in 7.0 mi ESE 15.0 mph 21.9 mph N/A   Unknown
6:15 PM 95.2 °F 95.1 °F 60.3 °F 31% 29.92 in 7.0 mi ESE 19.6 mph 24.2 mph N/A   Unknown
6:35 PM 95.0 °F 94.0 °F 58.1 °F 29% 29.93 in 10.0 mi ESE 12.7 mph 18.4 mph N/A   Unknown
6:55 PM 93.2 °F 94.1 °F 62.2 °F 36% 29.93 in 7.0 mi ESE 13.8 mph 20.7 mph N/A   Unknown
7:15 PM 91.8 °F 94.2 °F 65.5 °F 42% 29.94 in 10.0 mi ESE 13.8 mph 21.9 mph N/A   Unknown
7:35 PM 90.1 °F 93.5 °F 67.5 °F 47% 29.95 in 7.0 mi ESE 15.0 mph 19.6 mph N/A   Unknown
7:55 PM 88.9 °F 93.4 °F 69.1 °F 52% 29.96 in 7.0 mi ESE 9.2 mph 17.3 mph N/A   Unknown
8:15 PM 87.8 °F 93.4 °F 70.7 °F 57% 29.96 in 7.0 mi ESE 10.4 mph 17.3 mph N/A   Unknown
8:35 PM 86.9 °F 92.9 °F 71.6 °F 60% 29.97 in 7.0 mi ESE 9.2 mph - N/A   Unknown
8:55 PM 85.8 °F 91.8 °F 71.8 °F 63% 29.98 in 10.0 mi ESE 9.2 mph 16.1 mph N/A   Unknown
9:15 PM 85.1 °F 91.1 °F 72.3 °F 65% 29.99 in 7.0 mi ESE 8.1 mph - N/A   Unknown
9:35 PM 84.4 °F 90.3 °F 72.5 °F 67% 30.00 in 10.0 mi ESE 9.2 mph - N/A   Unknown
9:55 PM 83.8 °F 89.8 °F 72.7 °F 69% 30.01 in 7.0 mi ESE 9.2 mph - N/A   Unknown
10:15 PM 83.3 °F 89.3 °F 72.9 °F 71% 30.02 in 7.0 mi ESE 9.2 mph - N/A   Unknown
10:35 PM 82.8 °F 88.4 °F 73.0 °F 72% 30.03 in 7.0 mi SE 6.9 mph - N/A   Unknown
11:35 PM 81.7 °F 87.3 °F 73.9 °F 77% 30.05 in 7.0 mi ESE 6.9 mph - N/A   Unknown